Location: Eboldshausen
(51.7766°N, 10.0050°E)
Time: 07:55:59
(UTC+00:00)

SMAP - Pass Details

Date: 15 November 2025
Orbit: 681 x 683 km, 98.1° (Epoch: 13 December)

Event Time Altitude Azimuth Distance (km) Brightness Sun altitude
Rises 16:22:49 0° 159° (SSE) 3,036 6.4 -8.3°
Reaches altitude 10° 16:25:02 10° 158° (SSE) 2,125 5.6 -8.7°
Maximum altitude 16:29:41 78° 73° (ENE) 705 3.0 -9.3°
Drops below altitude 10° 16:34:22 10° 348° (NNW) 2,140 5.6 -10.0°
Sets 16:36:37 0° 347° (NNW) 3,060 6.4 -10.4°
